Regional Weather Roundup
Issued by NWS

Home | Current Version | Previous Version | Text Only | Print | Product List | Glossary On
Versions: 1 2 3 4 5 6 7 8 9 10 11 12 13 14 15 16 17 18 19 20 21 22 23 24 25 26 27 28 29 30 31 32 33 34 35 36 37 38 39 40 41 42 43 44 45 46 47 48 49 50
000
ASUS45 KPSR 200310
RWRAZ

ARIZONA REGIONAL HOURLY WEATHER ROUNDUP
NATIONAL WEATHER SERVICE PHOENIX AZ
800 PM MST FRI DEC 19 2014

NOTE: FAIR INDICATES FEW OR NO CLOUDS BELOW 12,000 FEET WITH NO
SIGNIFICANT WEATHER AND/OR OBSTRUCTIONS TO VISIBILITY.

AZZ001>003-036-200400-
NORTHWEST ARIZONA

CITY           SKY/WX    TMP DP  RH WIND       PRES   REMARKS
BULLHEAD CITY  CLOUDY    54  41  62 NE3       30.18R
KINGMAN        MOCLDY    41  34  76 SE10      30.17F
$$

AZZ004>008-015-016-018-200400-
NORTH CENTRAL ARIZONA

CITY           SKY/WX    TMP DP  RH WIND       PRES   REMARKS
GRAND CANYON   PTCLDY    26  23  88 CALM      30.21F
PRESCOTT       CLEAR     33  26  75 S6        30.20S WCI  28
FLAGSTAFF      MOCLDY    26  23  88 CALM      30.22S
PAYSON         CLEAR     39  30  70 N5        30.22R
PAGE           CLEAR     39  30  70 CALM      30.21R
$$

AZZ009>014-017-200400-
NORTHEAST ARIZONA

CITY           SKY/WX    TMP DP  RH WIND       PRES   REMARKS
WINSLOW        CLEAR     30  28  92 SE5       30.24R WCI  25
SAINT JOHNS    PTCLDY    30  27  88 CALM      30.20S
WINDOW ROCK    PTCLDY    28  25  88 CALM      30.21R
SHOW LOW       CLEAR     27  25  93 E3        30.24R
$$

AZZ023-200400-
GREATER PHOENIX AREA

CITY           SKY/WX    TMP DP  RH WIND       PRES   REMARKS
PHOENIX        CLEAR     54  41  61 CALM      30.14S
BUCKEYE          N/A     48  46  93 N7        30.16S
GLENDALE       PTCLDY    54  43  66 CALM      30.16S
LUKE AFB       CLEAR     53  41  65 CALM      30.14F
DEER VALLEY    CLEAR     52  40  63 CALM      30.14S
SCOTTSDALE     CLEAR     54  40  59 N3        30.16S
MESA-FALCON    PTCLDY    52  37  58 VRB5      30.15R
MESA-GATEWAY   PTCLDY    52  41  66 CALM      30.17R
CHANDLER       CLEAR     54  46  76 W7          N/A
$$

AZZ027-028-200400-
SOUTHWEST MARICOPA COUNTY AND PINAL COUNTY

CITY           SKY/WX    TMP DP  RH WIND       PRES   REMARKS
CASA GRANDE    CLEAR     52  39  62 CALM      30.16R
GILA BEND      FAIR      51  43  73 SE3       30.16F
$$

AZZ503-504-507>509-200400-
SOUTHEAST ARIZONA

CITY           SKY/WX    TMP DP  RH WIND       PRES   REMARKS
TUCSON         CLEAR     52  39  61 NW5       30.16R
DAVIS-MONTHAN  CLEAR     49  41  75 N6        30.14R
RYAN FIELD       N/A     52  45  76 W8        30.17R
NOGALES        CLEAR     48  30  49 NE12      30.13S
SIERRA VISTA   CLEAR     39  32  75 CALM      30.16S
DOUGLAS        CLEAR     39  32  76 NE9       30.16S WCI  33
SAFFORD        CLEAR     42  37  82 N5        30.16S
$$

AZZ020-021-025-026-031-200400-
SOUTHWEST ARIZONA

CITY           SKY/WX    TMP DP  RH WIND       PRES   REMARKS
YUMA           MOCLDY   N/A N/A N/A N3        30.14F
$$

CAZ031-033-041-043-047-048-061-200400-
SOUTHERN CALIFORNIA

CITY           SKY/WX    TMP DP  RH WIND       PRES   REMARKS
DOWNTOWN L.A.  PTCLDY    58  50  75 CALM      30.18R
L.A. AIRPORT   MOCLDY    59  51  75 W12       30.18R
SAN DIEGO      MOCLDY    60  52  74 NW3       30.18R
BURBANK        CLEAR     57  50  77 CALM      30.18R
ONTARIO        PTCLDY    56  46  69 W7        30.17R
RIVERSIDE      CLOUDY    56  47  71 W3        30.17R
PALM SPRINGS   MOCLDY    61  42  49 NW3       30.17S
EL CENTRO NAS  CLOUDY    58  41  53 CALM      30.15S
IMPERIAL       CLOUDY    58  41  53 CALM      30.14S
BLYTHE         MOCLDY    55  50  83 CALM      30.15F
NEEDLES        MOCLDY    54  43  66 W7        30.16S
$$

NVZ020-UTZ003-200400-
SOUTHERN NEVADA-UTAH

CITY           SKY/WX    TMP DP  RH WIND       PRES   REMARKS
LAS VEGAS      CLOUDY    52  40  63 CALM      30.14F
SALT LAKE CITY CLOUDY    41  26  55 NW6       30.12R
$$

NMZ009-TXZ055-200400-
NEW MEXICO-WEST TEXAS

CITY           SKY/WX    TMP DP  RH WIND       PRES   REMARKS
ALBUQUERQUE    PTCLDY    38  24  57 NW9       30.19R WCI  31
EL PASO        CLEAR     44  29  55 N9        30.15R
$$


........................KEY........................
SKY/WX - SKY CONDITION/WEATHER
TMP    - TEMPERATURE IN FAHRENHEIT
DP     - DEW POINT IN FAHRENHEIT
RH     - RELATIVE HUMIDITY IN PERCENT
WIND   - DIRECTION AND SPEED IN MILES PER HOUR (MPH)
VRB    - VARIABLE WIND DIRECTION
PRES   - MEAN SEA LEVEL PRESSURE IN INCHES OF MERCURY
         F - FALLING PRESSURE   R - RISING PRESSURE
         S - STEADY PRESSURE
VSB    - VISIBILITY IN MILES
HX     - HEAT INDEX IN FAHRENHEIT
WCI    - WIND CHILL INDEX IN FAHRENHEIT
TC     - TEMPERATURE IN CELSIUS WHICH IS ALSO KNOWN AS
         TEMPERATURE IN CENTIGRADE
AFB    - AIR FORCE BASE
         LUKE AFB IS LUKE AIR FORCE BASE
         DAVIS-MONTHAN IS DAVIS-MONTHAN AIR FORCE BASE
NAS    - NAVAL AIR STATION
         EL CENTRO NAS IS EL CENTRO NAVAL AIR STATION
N/A    - NOT AVAILABLE


USA.gov is the U.S. government's official web portal to all federal, state and local government web resources and services.